Wind_Speed
39 41 39 39 42 45 47 51 54 53 51 49 47 46 45 45 44 44 44 44 43 43 43 43 43 42 42 41 40 39 38 38 37 36 35 35 35 35 35 35 35 35 35 35 35 34 34 33 33 32 31 32 34 31 26 26 30 36 35 29 28 28 24 24 29 31 31 32 33 34 35 35 36 38 38 36 34 35 38 40 39 38 38 38 37
37 38 36 37 42 46 48 50 49 46 44 43 42 40 39 38 38 38 38 38 38 37 38 37 37 37 36 35 35 35 34 33 33 32 32 31 31 32 31 31 31 31 31 31 31 31 31 31 31 32 33 34 34 28 23 23 27 33 36 31 29 31 27 24 28 33 35 36 36 35 34 35 36 39 39 37 35 33 35 41 43 42 41 42 41
38 39 37 40 45 46 46 46 44 42 39 38 36 34 34 33 33 33 33 33 32 32 33 33 33 33 32 32 31 31 30 30 30 29 29 28 28 28 28 28 28 28 28 29 29 29 29 29 30 31 33 35 36 34 31 31 29 30 35 32 29 29 29 29 30 33 39 40 39 38 37 36 37 38 39 38 36 34 33 37 41 42 42 42 43
40 40 41 44 46 45 44 44 42 40 37 36 34 32 30 29 29 30 30 29 29 29 29 30 30 30 29 30 29 29 28 28 28 27 27 27 27 27 27 27 27 28 28 28 28 28 28 28 29 31 33 34 37 39 40 39 37 38 40 37 35 32 33 37 34 32 41 44 42 40 39 39 40 39 40 41 40 38 35 34 36 39 42 43 43
42 42 45 46 45 45 44 43 42 40 38 36 33 31 29 27 27 28 29 29 28 27 27 27 28 27 28 29 28 28 27 27 27 27 27 27 27 28 28 28 29 29 29 28 27 27 27 28 29 31 33 34 37 40 42 43 43 45 47 44 41 37 37 42 38 32 39 45 44 41 39 41 43 42 42 43 43 42 40 38 37 39 41 42 42
45 46 48 47 45 46 45 43 42 41 39 37 35 32 29 27 27 29 29 29 27 26 26 26 27 26 27 28 28 27 27 26 26 26 26 27 27 27 27 28 29 30 30 29 29 29 29 29 30 32 33 34 37 39 41 43 44 46 49 48 44 39 41 47 45 36 37 43 43 40 38 41 44 44 43 44 45 45 44 44 42 42 43 42 41
49 48 48 48 48 47 46 45 44 43 41 39 37 35 32 30 29 30 30 29 27 24 24 26 26 26 26 27 27 27 26 26 26 26 26 26 27 27 27 27 29 30 31 31 31 32 32 32 32 33 33 35 36 39 40 42 43 45 48 50 46 41 42 48 51 44 39 41 43 39 38 42 45 45 43 44 46 47 47 46 45 46 45 43 42
50 50 49 49 49 47 48 48 47 46 43 42 40 38 35 32 32 32 32 31 28 25 25 26 25 25 25 26 26 26 26 26 26 25 26 26 27 27 27 28 29 30 30 31 33 33 34 34 34 33 34 35 36 38 40 41 42 44 46 49 48 44 42 46 51 50 45 44 44 41 39 42 45 46 46 45 45 47 48 47 45 45 45 44 43
51 51 50 50 50 49 50 50 49 48 46 44 42 40 37 35 35 34 34 33 30 27 27 27 26 24 24 25 25 25 26 26 26 26 26 27 27 27 28 29 30 30 31 31 32 33 34 34 34 34 34 35 36 37 39 40 41 43 44 47 49 47 45 45 48 50 49 48 47 44 42 43 45 47 49 48 46 46 47 47 45 44 44 44 44
51 51 50 50 50 50 51 50 49 49 48 46 44 42 40 39 38 37 38 37 34 31 31 31 29 27 26 25 25 26 26 26 26 26 27 28 28 29 29 30 30 31 31 31 32 33 34 34 35 35 34 35 36 37 38 39 40 41 43 45 48 50 49 46 47 49 50 50 49 46 46 46 46 47 49 49 48 47 46 46 45 44 44 44 44
49 50 50 50 50 50 50 50 49 49 49 48 46 45 43 41 42 40 41 42 38 35 34 34 33 31 29 28 28 28 27 28 28 27 28 28 29 30 31 32 32 32 32 33 33 33 34 35 35 35 35 35 36 37 38 38 39 40 41 43 46 51 52 49 48 49 50 51 51 49 49 49 49 50 50 50 50 49 48 47 46 45 44 44 44
47 48 49 49 50 50 49 49 49 49 49 48 47 47 44 43 44 44 43 44 42 40 39 38 37 35 34 33 32 31 30 30 30 30 30 30 30 31 32 33 34 34 34 34 34 34 34 34 35 36 35 36 36 37 37 38 38 38 40 42 44 50 54 51 49 51 51 52 52 52 52 52 51 52 52 52 52 52 50 49 48 47 46 45 45
47 47 47 48 49 48 48 49 48 49 49 49 48 48 46 45 46 46 46 45 45 44 43 42 41 39 38 37 36 35 34 33 33 33 34 34 33 33 34 35 35 35 35 35 35 34 34 34 35 35 36 36 37 37 37 37 38 38 39 41 43 48 54 53 50 52 54 54 53 54 53 53 52 52 51 51 52 53 53 52 51 51 50 48 47
49 48 48 48 49 48 48 48 48 48 48 49 49 48 47 46 47 47 47 47 47 46 46 45 45 44 42 41 40 39 39 38 37 37 38 38 37 37 36 36 37 37 37 36 36 36 35 35 34 35 36 37 38 39 39 38 38 38 39 40 43 46 52 54 52 52 56 57 57 56 55 54 53 52 51 51 51 51 51 51 52 54 53 51 50
52 52 51 51 51 51 51 50 49 49 49 48 48 48 48 48 48 48 48 48 48 47 47 47 47 46 45 44 44 44 43 42 42 41 41 41 41 41 41 40 39 39 40 39 38 37 37 36 35 35 36 37 38 39 40 40 39 39 39 40 43 46 50 53 53 52 55 59 60 59 58 57 56 55 53 52 51 50 49 48 49 51 54 54 54
56 55 55 54 54 54 54 54 53 53 52 51 50 49 49 49 49 48 49 50 49 49 49 48 48 48 48 47 47 47 46 46 45 45 45 45 45 44 44 43 42 42 41 42 41 41 40 39 38 37 36 36 37 39 40 42 42 41 41 41 43 46 49 51 52 52 54 57 61 62 61 60 59 58 56 55 54 52 51 50 50 50 51 53 54
58 58 57 57 57 57 57 57 57 56 56 55 54 53 52 51 50 49 50 50 50 50 50 50 50 50 49 49 49 49 48 48 48 48 48 48 48 47 47 46 46 45 44 44 44 44 43 43 41 40 39 38 37 38 39 41 43 43 43 43 44 46 49 51 52 52 53 55 59 62 63 63 62 61 59 59 58 57 55 53 53 53 52 52 53
60 60 59 58 58 59 59 59 59 59 59 58 58 57 57 56 55 53 52 51 51 51 51 51 51 51 51 51 50 50 50 49 49 49 49 50 50 50 49 49 48 48 48 48 47 47 47 46 46 45 44 42 41 40 39 40 42 44 45 45 45 46 48 51 53 53 53 54 57 60 62 63 65 64 62 61 61 62 61 59 57 57 56 55 55
62 62 61 60 60 61 61 61 61 61 61 61 61 60 60 59 59 57 56 54 54 53 53 52 52 52 52 52 51 52 52 51 51 51 51 50 50 51 52 52 52 52 52 51 51 50 50 49 49 49 48 47 46 44 43 42 42 43 45 46 46 47 48 50 53 55 55 55 56 58 60 62 64 65 65 64 62 63 64 64 62 61 60 60 59
64 64 63 62 62 62 63 63 63 63 63 63 63 63 62 62 61 60 59 58 57 57 57 56 55 54 53 52 52 53 52 51 51 52 52 51 50 51 52 53 54 55 55 55 55 54 53 52 52 51 51 50 50 49 48 46 45 44 44 46 47 47 48 50 52 55 57 57 58 58 59 61 62 64 65 65 65 64 64 64 65 65 65 63 62
64 64 64 64 63 63 63 64 64 64 64 65 65 65 64 64 63 63 62 61 60 60 60 59 58 58 57 55 55 54 53 52 51 51 52 52 51 52 53 53 55 57 57 58 58 58 57 56 55 54 53 53 52 52 52 51 50 48 47 47 47 48 49 50 52 54 56 58 59 60 61 61 62 63 64 65 66 66 65 65 65 67 68 68 65
62 62 62 62 62 61 62 62 63 63 63 64 66 66 66 65 65 65 64 63 62 62 62 62 61 61 60 59 58 58 57 56 54 54 52 50 50 52 54 54 55 57 59 59 59 60 60 59 58 57 56 56 55 55 55 54 54 53 52 51 50 49 49 50 52 53 55 57 58 60 61 63 63 63 64 65 66 67 67 67 66 66 69 71 71
59 59 59 59 59 59 59 59 59 60 60 61 63 65 65 65 65 65 65 65 64 64 63 63 64 63 62 61 60 61 60 59 58 57 55 51 49 52 55 56 56 56 59 61 61 60 61 61 61 61 60 60 59 59 58 57 57 57 56 56 54 53 52 51 52 53 55 57 58 59 60 62 63 65 65 66 67 68 69 69 69 69 69 70 72
55 55 56 56 57 57 56 56 56 56 57 57 58 60 62 63 63 63 63 64 64 64 63 63 64 64 64 62 62 62 62 61 59 58 58 55 52 54 57 58 58 58 59 60 61 62 63 62 62 63 63 63 63 63 62 61 60 59 59 59 58 57 57 55 55 55 56 57 58 60 60 61 62 64 65 66 67 69 70 71 71 72 72 72 72
53 53 53 54 54 55 55 55 55 54 54 54 55 56 57 58 58 59 59 59 59 60 61 61 62 63 63 62 61 60 60 60 58 55 56 57 57 61 64 62 60 59 59 59 60 63 64 64 64 65 65 66 66 65 65 64 63 63 62 62 61 61 61 60 59 58 58 59 59 60 61 62 63 63 64 65 66 68 69 70 71 72 73 74 74
52 52 53 53 54 55 55 54 54 54 54 53 53 53 54 55 55 55 56 56 55 55 57 59 60 60 61 60 58 57 56 57 53 47 47 52 57 62 66 65 63 61 61 62 62 63 63 64 67 68 68 69 68 67 67 66 66 66 66 65 65 64 64 64 64 63 63 62 62 62 62 63 64 65 65 65 66 67 67 68 69 71 72 73 74
54 54 54 54 55 56 56 56 56 56 55 55 54 54 54 55 55 55 56 56 55 55 56 58 59 59 58 58 57 55 56 57 55 49 49 54 59 62 64 66 66 63 63 66 66 64 64 66 70 70 69 70 70 70 69 69 69 69 69 69 68 68 67 67 67 67 67 67 66 66 66 65 65 66 66 67 67 67 67 68 68 69 70 71 72
56 56 56 56 56 57 58 58 58 57 57 57 56 56 56 57 57 57 58 58 58 58 58 59 60 60 59 59 59 58 58 59 59 59 62 65 66 67 67 67 65 62 62 64 66 65 64 66 70 70 69 71 72 72 73 72 72 72 72 72 71 71 71 70 70 70 70 70 70 69 69 69 69 68 68 68 68 68 69 69 69 70 70 71 71
59 58 58 58 58 58 59 60 60 60 60 59 59 59 59 58 59 60 60 61 61 61 61 62 62 63 62 61 62 61 61 61 61 63 65 67 69 69 69 67 64 62 63 64 66 65 63 65 69 69 68 70 72 74 74 75 76 76 75 75 75 74 73 73 73 73 72 73 73 73 73 73 73 72 71 70 70 70 70 71 71 71 72 72 73
61 59 60 60 60 60 60 61 62 62 63 63 63 63 62 61 61 62 62 63 63 64 64 64 65 65 65 65 65 64 64 64 64 64 65 66 67 68 68 67 64 63 65 65 65 64 62 64 68 68 67 70 72 74 74 76 78 78 78 79 78 77 76 75 75 75 76 76 77 76 76 76 76 76 75 74 74 73 73 73 73 73 74 74 75
63 62 62 63 62 63 63 64 64 65 66 66 67 67 66 65 65 65 65 65 66 66 67 67 67 68 68 69 68 68 68 67 66 67 67 67 67 67 67 67 65 64 65 65 64 63 62 63 65 67 68 70 71 73 75 77 78 79 80 81 81 79 78 78 78 78 78 79 79 79 79 79 79 79 78 78 78 77 77 76 76 76 76 76 76
64 64 65 66 65 66 66 67 68 68 68 69 70 70 70 69 69 69 69 69 69 69 69 70 70 70 71 71 71 71 71 70 69 70 70 70 70 69 69 69 67 65 65 66 66 66 67 66 66 68 69 70 70 73 75 76 77 79 81 82 82 81 81 81 81 81 82 82 81 81 82 82 82 82 82 81 81 81 81 81 80 80 79 79 78
66 66 67 67 68 69 70 71 71 71 71 71 72 72 72 73 73 72 72 72 72 72 72 72 73 73 73 73 73 73 73 72 72 72 72 72 72 72 72 72 70 68 67 68 68 68 69 70 69 70 70 69 70 73 75 76 77 78 79 81 81 80 82 83 82 83 84 85 84 84 84 84 84 85 85 84 84 84 84 84 84 84 83 83 82
67 67 67 67 69 72 73 74 74 74 74 74 74 73 73 74 75 75 75 75 75 75 75 75 75 75 75 75 75 75 75 74 75 75 75 75 75 75 75 75 74 73 71 71 71 71 71 71 71 71 70 68 71 74 75 76 77 77 77 79 80 80 81 82 82 83 85 86 87 86 86 86 87 87 87 87 87 87 87 87 87 87 87 87 86
70 69 68 68 71 73 74 75 75 75 76 76 75 75 75 75 76 76 77 77 77 78 78 77 77 77 76 76 76 76 76 76 77 77 76 77 77 77 77 77 77 76 75 74 74 73 73 73 72 72 69 68 71 75 76 76 76 76 76 78 79 80 81 81 80 81 84 85 86 87 88 89 90 90 89 89 90 90 90 90 90 90 90 90 90
74 73 72 72 73 74 74 75 76 76 77 77 77 76 77 77 77 77 78 78 79 79 79 79 79 78 77 77 77 77 78 78 78 78 78 78 78 78 78 78 79 78 77 77 76 76 76 75 73 72 69 68 71 75 75 75 75 75 77 78 79 80 81 81 80 81 82 83 84 85 87 89 91 91 91 91 92 93 93 93 93 92 92 93 93
77 75 75 75 76 75 75 75 76 77 77 77 77 77 77 78 78 78 79 79 79 80 80 80 80 80 79 79 79 79 79 80 80 80 80 79 79 79 79 79 79 79 78 78 78 78 77 75 74 72 69 69 73 75 73 73 74 75 77 79 80 81 81 81 81 81 82 82 82 84 86 88 89 91 91 92 93 95 95 95 95 95 95 95 96
79 77 77 77 76 76 76 76 76 76 76 76 77 77 77 78 79 79 80 80 80 80 81 81 81 80 80 81 81 81 81 81 81 81 81 81 81 80 80 80 80 80 80 80 79 79 79 76 74 74 73 73 75 74 72 73 74 75 77 79 80 81 82 82 82 81 81 81 82 83 84 86 87 88 89 90 92 94 96 96 97 97 97 98 99
80 78 77 76 76 76 76 76 76 76 76 76 76 77 77 78 79 80 80 81 81 81 82 82 81 81 81 82 82 82 82 82 82 82 82 82 82 81 81 81 81 81 81 81 80 81 80 77 76 77 76 76 75 74 73 74 75 76 77 79 80 81 81 81 81 81 81 82 82 83 84 84 85 86 87 89 90 92 94 95 97 98 99 100 101
79 77 75 75 76 76 76 75 75 75 76 76 76 76 77 77 78 79 80 80 81 81 82 82 81 81 81 82 82 83 83 83 83 83 82 82 82 82 82 82 82 82 82 82 82 82 81 79 78 79 78 76 75 75 76 76 77 78 79 79 80 81 81 80 81 81 81 81 82 83 83 82 83 85 86 87 89 90 91 93 95 97 99 101 103
77 75 73 73 74 74 74 74 74 74 74 74 75 75 75 76 77 77 78 79 80 81 81 81 81 80 81 81 82 82 82 82 82 82 82 82 82 82 82 82 82 82 82 82 82 81 80 80 80 79 78 76 76 77 78 79 80 80 80 80 80 81 80 80 80 80 81 81 81 82 81 81 82 83 84 86 87 88 90 91 92 94 96 98 100
75 73 71 71 72 72 71 71 71 71 71 71 71 72 72 73 73 74 75 76 77 78 78 78 78 78 79 80 80 81 81 81 81 81 81 81 81 81 81 80 80 80 81 81 81 80 79 79 79 79 78 77 77 78 80 81 80 80 80 80 80 80 80 80 80 80 80 79 80 80 80 79 80 82 82 83 85 87 88 89 90 92 94 95 97
72 71 69 69 69 69 69 69 68 68 68 67 67 67 68 68 68 69 70 71 72 73 73 74 74 74 75 76 77 79 79 79 79 79 78 78 79 79 78 77 77 77 78 78 78 77 76 75 76 77 77 77 77 77 78 79 79 79 79 79 79 79 79 80 79 79 78 78 78 78 78 77 78 79 79 80 81 83 85 86 88 90 91 93 94
70 69 68 68 67 66 66 66 65 65 65 64 64 64 64 64 64 65 66 66 66 67 67 68 68 68 69 71 73 74 74 74 75 75 75 75 74 74 74 74 74 74 74 74 74 73 71 71 73 75 75 74 74 74 75 76 77 77 77 77 77 77 77 77 77 76 75 75 75 75 75 74 74 75 76 78 79 80 81 83 84 86 88 89 90
68 67 66 66 64 63 63 62 63 63 63 62 62 61 60 61 61 61 61 61 62 62 63 63 63 64 65 67 69 69 69 69 70 70 70 69 68 69 71 71 70 70 70 70 70 69 68 69 71 71 70 70 70 72 73 73 74 74 73 73 73 73 73 73 73 72 72 72 72 72 71 71 71 71 72 74 75 76 77 78 80 81 83 84 85
65 65 64 63 62 61 61 60 60 60 60 60 60 59 57 57 57 58 58 58 59 59 59 59 60 61 63 64 65 65 65 64 65 66 65 64 64 66 67 67 66 66 66 66 66 66 67 68 68 67 67 67 68 69 70 70 70 70 70 69 69 69 69 69 68 68 67 67 67 68 68 68 68 68 67 68 69 70 71 72 74 75 75 76 76
63 63 62 61 60 60 59 58 57 57 58 58 57 56 56 55 55 56 56 57 57 57 57 57 58 60 61 61 61 61 61 61 61 61 60 60 61 63 63 63 63 63 62 62 63 63 63 64 64 64 64 65 65 65 66 67 68 67 65 64 64 65 65 65 65 64 63 63 63 64 64 65 64 64 63 62 62 63 64 65 66 67 67 67 67
61 61 61 60 59 58 58 57 55 55 56 56 56 56 55 55 55 55 55 55 55 54 54 55 56 58 58 58 57 58 58 58 57 57 56 56 57 58 59 60 60 59 58 59 59 59 59 60 60 61 61 62 63 63 65 66 66 63 60 58 59 61 62 62 62 61 61 61 61 61 61 61 60 60 59 57 56 56 57 58 60 61 61 61 61
61 61 60 59 58 57 57 57 56 55 55 54 55 54 54 55 54 54 54 53 52 50 51 53 54 55 55 54 54 55 55 55 54 53 52 52 54 55 55 56 55 54 54 55 55 55 56 57 57 58 59 60 61 63 64 64 62 58 54 53 56 57 58 58 59 59 59 59 58 59 59 58 58 57 55 54 53 52 53 54 55 56 58 59 59
60 59 59 57 57 57 56 56 55 55 54 53 53 52 53 53 53 53 52 51 48 48 49 50 51 52 52 52 51 52 52 52 50 49 49 51 51 50 50 50 49 50 51 52 52 52 53 54 55 56 57 58 60 61 61 60 58 55 52 51 53 54 55 55 56 56 57 57 57 57 57 56 55 54 53 52 52 52 52 53 53 55 56 57 57
58 58 57 56 56 55 54 53 53 53 52 52 52 52 51 51 51 50 49 48 47 46 46 48 50 50 50 49 49 49 50 49 48 48 49 50 48 46 46 47 47 48 49 50 51 51 51 52 54 55 56 57 59 59 57 56 55 53 50 49 50 51 52 53 53 54 55 55 55 55 55 54 53 52 51 51 51 51 52 52 53 53 53 53 53
Wind_Direction
258 259 254 251 255 256 257 263 266 268 269 271 272 273 273 273 272 271 270 269 268 268 267 267 267 267 266 265 264 264 263 262 261 260 258 257 257 257 256 255 253 252 250 249 248 247 246 242 241 238 231 231 232 230 231 239 239 227 221 223 221 217 221 233 239 242 235 224 222 224 226 226 221 219 220 222 226 231 231 229 228 231 236 243 245
258 259 257 253 253 255 260 265 267 269 271 273 275 275 275 274 273 271 270 269 268 267 266 266 265 265 264 263 262 262 261 261 260 259 257 256 255 254 255 254 253 252 250 249 246 244 242 238 236 234 229 227 225 222 221 228 235 230 227 227 219 217 223 234 239 235 228 224 223 222 224 225 222 221 220 219 221 227 232 232 229 228 230 234 238
251 254 253 252 254 258 263 266 268 270 272 273 275 276 276 275 273 271 270 269 267 266 265 264 263 262 262 261 260 259 258 258 257 256 256 254 253 253 253 253 252 251 250 248 246 243 240 236 234 232 229 226 221 216 214 217 220 221 227 225 213 215 223 230 237 228 219 222 224 222 224 224 223 224 221 217 220 227 233 234 232 232 231 231 235
257 257 254 253 258 260 263 266 268 269 270 272 273 274 275 274 272 270 269 268 266 264 262 262 261 260 259 259 257 256 254 253 252 252 252 250 249 249 247 245 244 246 247 246 244 240 238 236 235 233 229 227 224 220 218 219 215 214 220 216 207 212 218 222 230 224 214 218 221 221 224 224 223 224 222 220 223 228 232 235 236 236 235 235 238
263 262 261 261 263 264 264 265 267 269 270 271 271 272 272 271 269 268 267 267 265 263 260 259 258 256 256 256 255 253 250 248 248 247 247 245 245 245 243 240 239 240 242 241 239 237 237 237 237 236 233 229 226 225 223 223 220 217 219 217 210 213 216 217 223 222 214 215 218 220 224 224 223 224 224 223 226 228 230 233 237 238 237 236 237
266 265 266 267 266 267 268 267 268 270 271 271 272 271 269 267 266 266 266 266 265 263 261 259 257 254 253 253 252 251 248 245 243 242 242 241 241 243 243 241 240 238 236 235 233 231 233 235 237 238 236 232 229 228 226 226 224 222 222 221 216 213 215 217 221 220 214 213 215 219 224 223 223 224 225 225 226 228 229 230 234 239 239 235 234
266 265 266 267 268 269 269 269 270 270 270 271 271 270 270 267 265 265 266 267 266 264 263 262 259 256 253 252 251 249 246 243 240 238 238 238 237 237 238 239 239 237 236 234 232 230 231 233 236 238 237 235 232 230 228 227 226 225 224 223 219 213 212 218 223 223 218 213 213 216 222 222 221 223 225 226 227 228 228 228 232 239 240 237 234
266 266 265 266 267 268 267 268 270 270 269 269 269 269 269 268 266 265 265 267 267 264 263 263 261 259 257 254 252 250 246 243 240 238 237 237 237 236 236 237 238 238 238 238 236 235 234 234 236 238 239 238 235 232 230 229 228 227 225 224 221 214 210 216 223 225 222 217 215 217 221 221 220 222 224 227 228 228 228 227 230 235 240 239 235
266 266 265 265 265 265 265 267 268 269 268 268 268 268 266 266 265 264 264 264 264 263 262 262 261 260 259 257 254 251 248 245 243 241 240 240 240 240 241 241 240 240 241 241 241 239 239 239 239 240 241 240 239 235 232 231 229 228 227 225 222 216 211 214 220 224 223 219 217 220 223 223 222 223 225 227 229 231 231 230 231 234 238 240 238
267 267 266 265 264 264 264 266 267 267 267 266 266 265 264 263 262 262 263 263 261 260 260 260 259 257 256 257 255 253 251 248 246 244 243 243 243 244 245 246 245 244 244 244 243 242 241 242 242 243 243 241 240 239 236 233 231 230 229 227 223 217 214 214 217 221 223 220 217 220 224 225 224 225 227 229 231 233 234 234 234 236 238 240 240
266 266 266 265 265 264 265 265 266 266 266 265 265 264 263 262 261 259 260 262 262 260 258 259 259 258 257 256 255 254 252 250 249 247 247 246 246 245 246 247 247 247 246 246 245 244 243 243 244 244 244 242 240 239 239 236 234 232 231 230 226 219 216 215 215 218 222 222 219 220 224 227 227 228 229 230 231 234 235 236 237 238 238 239 241
265 265 265 265 265 265 265 265 265 265 266 265 264 263 263 261 261 259 258 260 262 260 259 258 258 258 258 257 257 256 254 253 252 251 250 250 249 248 246 246 247 248 248 248 248 247 246 245 244 244 243 242 240 238 239 238 236 234 233 232 229 223 220 218 216 215 218 221 221 223 226 228 230 231 232 233 234 235 235 235 236 238 239 239 241
266 265 265 265 266 265 265 264 264 264 264 265 264 264 263 261 261 260 259 260 260 259 259 258 258 257 257 257 258 257 257 256 255 254 253 253 252 252 250 248 247 248 249 249 249 249 249 248 247 245 243 242 240 238 238 238 236 235 234 233 232 228 225 224 221 216 216 218 220 223 227 229 230 232 234 236 237 237 237 237 237 238 240 241 242
265 265 265 266 266 267 266 265 265 264 263 263 263 263 263 261 260 261 261 260 259 259 259 259 258 257 257 257 257 257 257 256 255 255 255 255 255 254 254 252 250 250 250 250 250 250 250 251 249 247 246 244 241 238 237 238 236 234 234 233 232 231 230 230 229 222 218 218 219 221 225 228 229 230 233 235 237 238 238 238 239 239 239 240 241
263 263 264 265 266 267 267 267 267 266 265 264 263 262 262 261 260 260 260 260 260 259 259 259 259 258 257 256 256 256 256 256 255 255 255 256 256 256 255 254 253 252 251 251 250 250 250 251 251 250 249 247 244 241 239 238 237 235 233 232 232 231 232 234 234 230 224 220 220 221 223 225 226 229 231 231 233 236 237 237 238 239 238 238 240
262 262 263 263 264 265 265 266 267 267 267 266 265 264 263 261 260 260 259 259 258 258 258 257 258 258 258 257 256 255 255 256 256 255 255 255 256 257 257 256 256 254 253 252 252 251 251 251 251 251 251 250 248 245 243 240 239 238 235 232 231 231 232 235 236 236 231 226 223 223 224 224 224 226 229 230 231 233 236 239 239 238 238 238 239
263 262 262 262 263 263 264 264 264 265 265 266 265 265 264 263 262 261 260 260 259 258 257 257 256 256 256 256 256 256 256 256 256 255 255 255 256 256 257 258 258 257 256 255 253 252 252 252 251 251 251 251 250 248 246 244 242 241 239 236 233 230 230 233 236 237 236 232 229 227 227 227 226 225 226 228 230 232 233 236 239 239 238 239 239
264 263 263 263 263 263 263 263 263 263 263 263 264 264 264 264 263 262 261 261 260 260 259 258 257 256 255 255 255 255 255 255 255 255 255 255 255 256 256 257 257 258 257 256 255 253 252 252 251 251 250 250 250 250 248 247 246 245 244 242 239 234 231 231 234 236 237 236 235 233 232 231 231 231 229 227 229 232 233 234 235 237 238 239 239
265 264 264 263 263 263 263 263 263 263 263 263 262 262 262 262 263 263 262 262 261 261 260 259 258 257 257 256 255 255 254 254 254 255 255 255 256 256 256 256 256 256 257 256 256 254 254 253 252 251 251 250 249 249 248 248 247 246 246 245 244 242 237 233 232 234 236 237 237 237 237 236 236 236 236 234 231 231 233 234 234 234 235 237 238
266 265 265 264 263 263 263 262 262 263 263 263 263 263 262 262 262 261 261 261 261 261 260 259 259 258 258 256 256 256 255 254 254 254 253 254 255 256 257 257 257 256 255 255 255 255 254 253 253 252 252 251 250 249 249 248 247 247 247 246 246 245 243 239 235 233 234 236 238 238 238 239 239 239 240 240 239 237 235 234 233 233 233 234 236
266 266 266 265 264 264 263 263 263 262 262 262 262 263 263 263 262 262 261 260 260 260 260 260 260 259 259 258 257 257 256 255 254 254 254 254 253 254 256 257 257 256 256 255 255 255 254 253 253 253 252 252 251 250 250 249 248 247 246 246 246 246 245 244 241 237 235 235 237 238 239 240 240 241 241 242 243 244 243 240 237 235 234 234 234
266 267 267 266 266 264 264 264 264 263 263 263 262 262 262 262 262 263 262 262 261 260 261 261 261 260 260 259 259 258 257 256 255 256 256 256 255 254 254 254 255 255 256 256 255 255 255 254 254 253 253 253 252 251 250 249 249 248 247 246 246 245 245 246 245 243 240 237 236 238 239 240 241 242 242 243 244 245 246 247 245 241 238 236 236
267 267 267 267 266 265 264 264 264 264 264 264 264 264 263 263 262 262 263 263 262 261 261 261 261 260 260 259 259 259 259 258 257 257 256 256 257 256 253 253 253 254 255 256 256 256 256 256 255 254 254 253 253 252 250 249 249 248 248 247 246 245 245 245 245 245 244 241 239 238 239 240 241 242 243 243 244 245 246 247 249 248 245 242 241
265 266 267 267 267 267 265 264 263 263 263 264 264 264 265 265 264 264 263 263 263 263 262 261 261 260 259 259 259 259 260 260 260 260 259 257 255 254 253 253 254 254 254 255 256 257 256 256 256 256 255 254 253 252 251 250 249 249 249 249 248 247 246 244 244 245 245 244 242 241 241 240 240 241 242 243 244 245 246 246 248 249 249 248 247
264 265 266 266 266 266 265 264 263 262 262 262 262 263 263 264 264 264 264 263 264 264 264 262 261 260 259 258 257 257 259 260 260 260 261 261 256 253 253 253 253 255 254 254 255 257 256 255 255 255 255 254 253 252 252 251 250 250 249 249 249 249 248 247 245 244 244 245 244 244 243 243 242 241 241 242 243 244 245 246 247 248 249 249 250
265 265 265 266 265 265 264 263 262 261 261 260 260 260 261 261 262 262 263 262 262 262 263 263 262 261 260 259 256 255 255 257 257 255 255 257 256 254 253 252 251 253 254 254 255 256 257 256 255 254 254 254 253 253 253 252 251 251 250 249 249 249 249 249 249 247 246 245 245 245 245 244 244 244 243 243 243 243 244 245 246 247 248 249 249
267 266 266 266 266 266 265 264 262 261 260 259 258 258 258 259 259 260 260 260 260 259 260 261 262 262 262 261 258 254 251 250 251 247 242 244 248 251 254 254 252 251 253 255 254 254 257 258 256 255 254 254 253 253 253 252 251 251 250 250 249 248 248 249 250 250 249 248 247 246 246 246 245 245 245 246 245 245 245 245 246 247 248 249 249
266 266 266 266 266 267 267 266 265 264 263 261 260 259 258 258 259 259 259 259 259 259 259 260 261 261 261 261 260 257 253 250 249 246 244 245 248 251 254 255 254 252 252 253 253 252 254 256 256 255 254 254 254 253 253 252 252 251 250 250 249 249 248 248 249 249 250 251 250 249 248 247 247 246 246 246 247 247 247 247 246 247 247 248 249
266 265 265 265 265 266 266 267 268 267 266 265 263 262 260 259 259 259 260 260 260 260 260 261 261 261 261 261 260 260 258 256 253 251 250 251 251 252 252 253 254 252 251 252 252 250 250 253 255 255 254 255 256 255 254 254 253 252 251 250 249 249 248 248 248 249 250 251 251 251 250 250 249 248 247 247 247 247 248 248 248 248 248 248 248
267 267 266 266 266 266 266 267 267 267 267 267 266 265 263 262 261 260 260 260 261 261 261 261 262 263 263 262 261 261 260 260 259 257 256 255 255 255 254 253 252 250 250 251 252 250 250 251 253 254 254 255 256 257 256 256 255 254 253 252 250 249 249 249 248 248 249 250 250 251 251 251 251 250 250 249 249 248 248 248 248 248 249 249 249
268 268 268 268 267 267 267 266 266 266 267 267 267 266 265 264 263 262 261 261 261 261 261 261 261 262 262 263 262 262 262 262 262 262 261 260 259 258 258 256 253 250 249 250 250 249 249 251 253 254 254 254 256 257 257 257 257 256 255 254 252 251 251 250 249 249 249 249 249 250 250 251 251 251 251 251 251 250 250 249 249 249 249 249 250
267 268 268 268 268 268 268 267 267 266 266 266 266 266 266 266 265 264 263 262 261 261 260 260 260 261 261 262 262 263 263 263 263 263 263 263 262 262 261 260 257 255 252 251 251 250 250 251 252 253 254 254 255 256 257 257 257 257 257 256 255 254 253 252 251 251 250 249 249 249 250 250 251 251 251 251 251 251 251 251 251 251 250 250 250
266 267 268 269 269 269 268 267 266 266 266 266 266 266 266 266 266 265 265 264 263 262 261 261 260 260 260 261 261 262 263 263 263 263 263 264 264 263 263 263 261 259 257 256 255 254 252 252 252 253 253 255 256 256 257 258 258 258 259 259 258 257 255 255 254 253 253 251 250 249 249 249 250 250 251 251 251 251 251 252 252 252 252 252 251
268 268 268 269 269 268 267 267 267 266 266 266 266 266 266 266 266 266 265 265 264 263 263 262 261 261 261 261 261 261 262 262 263 263 263 263 264 264 264 264 264 263 261 260 259 258 256 255 253 252 252 253 255 256 257 257 258 259 259 259 259 258 257 256 255 254 254 253 252 251 250 250 250 249 250 250 251 251 251 251 252 252 252 253 253
271 270 269 268 268 268 268 268 268 267 267 266 266 266 265 265 265 265 265 265 265 265 264 264 263 263 262 262 262 262 262 262 262 262 262 262 263 263 263 264 264 264 263 263 262 261 260 258 257 255 253 252 254 256 256 257 258 259 259 260 260 259 258 257 256 255 255 254 254 253 253 252 251 250 249 250 250 250 251 251 251 251 252 252 253
272 271 270 269 268 268 268 268 268 267 267 267 266 266 266 265 265 264 264 264 264 265 265 265 265 265 264 264 263 263 263 263 262 262 262 262 262 263 263 263 264 264 264 264 264 263 262 262 260 259 257 255 256 256 256 257 258 259 259 260 260 260 259 259 257 256 256 255 255 255 255 254 253 252 251 250 250 250 250 250 250 251 251 251 252
272 271 270 269 268 268 268 267 267 267 267 267 267 267 267 266 266 265 265 265 265 264 264 265 265 265 265 264 264 263 263 263 263 263 263 263 263 263 263 264 264 264 265 265 264 264 264 263 263 262 261 260 259 258 258 259 259 259 259 259 260 260 260 259 259 258 257 257 257 256 256 255 255 254 253 252 252 251 251 250 250 250 251 251 251
272 271 270 270 269 269 268 267 267 266 266 266 266 266 266 266 266 266 266 265 265 265 265 264 264 264 265 265 265 265 264 264 264 264 264 264 264 264 264 264 264 265 265 265 265 265 265 264 264 264 263 262 262 261 261 261 260 260 260 260 259 259 259 259 259 259 259 258 258 257 257 257 256 256 255 254 254 253 252 252 251 250 250 250 251
272 271 271 271 270 269 267 267 266 265 265 264 264 264 264 264 264 264 265 265 265 265 265 265 265 265 264 264 265 265 265 264 264 264 264 264 264 264 264 264 264 264 264 265 265 265 265 265 265 265 264 263 263 263 263 262 261 261 260 260 259 259 259 259 260 260 259 259 258 258 257 257 257 257 257 256 255 255 254 253 253 252 251 250 250
272 272 271 270 269 268 267 266 265 264 264 263 263 262 262 262 262 263 263 263 263 264 264 264 264 264 264 264 264 264 264 264 264 264 264 264 264 264 264 264 264 264 264 264 264 265 265 265 265 265 264 264 264 264 263 263 262 261 260 260 260 260 260 260 260 260 259 259 259 259 258 258 258 258 257 257 256 256 255 255 254 253 252 252 251
271 271 270 269 268 267 267 266 265 264 263 263 262 262 262 261 261 262 262 262 262 262 262 262 262 262 262 262 262 262 262 262 262 263 263 263 263 263 263 263 263 263 263 264 264 264 264 265 265 265 265 264 264 264 263 262 261 261 261 261 261 261 261 260 260 260 260 260 260 259 259 258 258 258 258 258 258 257 256 256 255 254 254 253 252
270 269 268 267 267 267 266 266 265 264 264 263 263 262 262 262 262 261 261 261 261 261 261 261 261 261 261 261 261 261 261 261 261 261 261 261 262 262 262 262 262 263 263 263 263 263 263 264 264 265 265 264 263 263 262 262 262 262 261 261 261 261 261 261 261 261 261 261 261 261 260 260 259 259 258 258 258 258 258 257 256 255 255 254 253
269 268 267 266 266 266 266 266 265 265 265 264 264 263 262 262 262 261 261 260 260 261 261 261 261 260 260 260 260 260 260 260 260 260 260 260 260 261 261 262 262 262 262 262 262 262 262 262 263 263 263 262 262 262 262 263 263 263 263 262 262 262 262 262 262 262 262 262 262 262 262 261 261 260 260 259 259 258 258 258 258 257 256 255 255
268 267 267 266 265 265 265 266 266 266 265 265 264 263 263 263 262 261 261 261 260 260 260 260 259 259 259 258 258 258 259 259 260 260 260 260 260 260 260 260 260 260 261 261 262 262 262 262 261 261 261 262 263 263 263 263 263 264 264 264 264 263 263 263 263 264 264 264 264 264 263 263 262 261 260 260 259 259 258 258 258 258 258 258 257
267 267 266 266 266 265 265 265 265 265 265 265 264 263 263 263 262 262 261 261 260 259 258 258 258 257 257 257 257 257 257 258 258 259 260 260 260 260 260 260 260 260 260 261 262 262 262 262 261 261 262 262 263 263 263 263 264 264 265 265 265 265 265 265 265 265 265 265 265 265 265 264 263 261 260 259 259 259 259 258 258 258 259 259 260
267 267 267 267 267 267 267 266 266 267 266 266 266 265 264 263 262 262 261 260 259 258 258 257 257 257 256 256 256 257 257 257 257 258 258 259 259 259 259 259 260 260 260 260 261 261 261 261 262 262 263 262 262 263 263 264 264 265 265 265 266 266 266 267 267 267 267 267 267 266 266 265 265 263 261 260 260 260 260 260 259 259 260 260 260
268 268 268 268 268 268 268 267 267 267 267 267 266 265 264 263 262 261 260 259 258 258 258 258 257 257 257 257 258 258 258 258 258 258 258 258 258 258 259 260 259 259 260 260 260 260 261 262 262 262 263 263 263 263 263 264 264 264 264 266 267 267 268 269 269 269 269 269 269 268 267 266 266 265 264 263 262 261 261 261 261 262 262 261 261
268 268 268 268 268 268 268 267 266 265 264 264 264 264 263 262 261 260 259 258 258 257 258 257 257 257 258 258 259 260 260 260 259 259 259 259 259 259 259 259 259 259 259 260 260 260 261 261 261 262 262 262 263 263 263 263 264 265 266 267 268 268 269 269 270 271 271 270 269 269 268 267 267 267 266 265 264 263 263 263 263 264 264 263 262
267 267 267 267 267 267 266 266 265 264 262 262 262 262 262 262 261 260 259 258 257 257 257 257 257 258 258 259 259 259 260 260 260 260 260 259 258 258 258 259 260 260 260 260 260 260 260 260 260 260 261 261 262 262 263 264 266 268 269 268 268 268 269 269 270 270 270 270 269 269 269 268 268 269 269 269 268 268 267 266 265 265 264 263 261
266 266 266 266 265 265 264 264 264 264 264 263 263 262 261 261 261 260 260 260 259 258 257 257 258 258 258 258 258 259 259 259 259 259 259 258 257 258 259 260 260 260 259 259 259 258 258 259 259 259 260 260 261 262 263 266 268 270 270 268 268 268 269 269 269 269 269 270 270 270 270 270 271 272 273 273 273 272 271 269 267 265 262 261 259
266 266 266 265 264 264 265 264 264 264 264 264 263 263 262 261 260 260 260 260 260 259 259 259 258 258 258 257 257 257 258 259 258 257 256 257 258 258 258 257 257 257 257 257 257 257 256 257 257 258 259 259 260 262 265 267 268 270 270 269 268 268 267 267 267 267 268 269 269 270 272 273 275 276 276 276 275 273 271 268 265 264 262 261 260
Height
10625 10624 10625 10623 10621 10621 10621 10620 10620 10620 10620 10619 10619 10619 10618 10617 10615 10614 10613 10612 10612 10612 10612 10613 10612 10613 10613 10613 10614 10614 10615 10616 10617 10618 10619 10620 10620 10620 10622 10623 10625 10626 10628 10629 10630 10632 10633 10635 10637 10639 10642 10644 10645 10648 10651 10655 10658 10661 10663 10666 10669 10670 10672 10673 10672 10672 10672 10672 10672 10673 10674 10675 10678 10679 10682 10685 10688 10690 10692 10693 10695 10698 10700 10703 10705
10620 10619 10619 10618 10618 10618 10618 10616 10616 10616 10616 10614 10614 10613 10613 10612 10610 10609 10608 10608 10608 10607 10607 10608 10608 10608 10608 10609 10610 10610 10611 10612 10613 10614 10615 10616 10616 10617 10617 10618 10620 10621 10622 10624 10625 10627 10629 10631 10633 10635 10637 10638 10641 10644 10647 10650 10655 10658 10660 10662 10664 10666 10667 10668 10668 10667 10668 10668 10668 10669 10670 10671 10674 10675 10678 10681 10684 10686 10687 10688 10690 10692 10695 10698 10701
10617 10617 10618 10616 10615 10616 10614 10612 10612 10612 10611 10610 10610 10609 10607 10607 10606 10604 10603 10604 10604 10604 10604 10604 10604 10604 10604 10605 10606 10606 10607 10608 10609 10610 10610 10612 10612 10613 10614 10614 10615 10617 10618 10619 10621 10623 10625 10627 10629 10631 10633 10634 10637 10639 10641 10643 10647 10651 10653 10656 10660 10662 10663 10663 10662 10661 10662 10662 10663 10664 10665 10667 10670 10672 10674 10678 10680 10681 10682 10684 10686 10689 10692 10695 10697
10612 10612 10613 10613 10611 10610 10609 10607 10606 10607 10607 10606 10606 10605 10604 10603 10601 10599 10599 10600 10601 10601 10601 10600 10600 10600 10600 10601 10602 10603 10604 10605 10605 10606 10607 10608 10609 10610 10610 10611 10612 10613 10614 10616 10617 10619 10621 10623 10625 10626 10628 10630 10632 10634 10636 10638 10641 10643 10644 10648 10652 10654 10655 10655 10654 10654 10655 10657 10659 10660 10662 10664 10666 10667 10670 10673 10675 10676 10678 10681 10682 10685 10688 10691 10693
10604 10604 10603 10604 10603 10602 10602 10602 10601 10601 10602 10602 10602 10602 10601 10599 10598 10596 10596 10596 10597 10598 10597 10597 10597 10597 10597 10598 10598 10599 10600 10601 10602 10602 10604 10604 10605 10606 10607 10608 10609 10610 10611 10612 10613 10615 10617 10619 10621 10622 10624 10626 10628 10630 10632 10633 10636 10637 10638 10641 10645 10647 10647 10647 10647 10648 10650 10652 10655 10657 10658 10660 10662 10663 10665 10667 10669 10671 10674 10677 10679 10680 10683 10685 10688
10596 10595 10593 10593 10594 10594 10594 10595 10595 10596 10596 10597 10597 10598 10597 10596 10595 10594 10593 10593 10594 10594 10594 10594 10594 10595 10595 10595 10595 10596 10597 10598 10599 10599 10600 10601 10602 10603 10604 10605 10605 10606 10607 10608 10609 10611 10613 10615 10617 10618 10620 10622 10624 10625 10627 10629 10631 10633 10634 10636 10639 10641 10641 10641 10642 10644 10647 10649 10651 10653 10655 10656 10657 10659 10661 10663 10665 10666 10669 10672 10674 10676 10678 10680 10683
10588 10589 10588 10586 10586 10587 10587 10588 10589 10590 10591 10592 10592 10593 10593 10593 10592 10590 10589 10590 10591 10592 10591 10591 10591 10592 10592 10592 10592 10593 10594 10595 10596 10597 10597 10598 10599 10600 10601 10602 10602 10603 10603 10604 10606 10607 10609 10611 10612 10614 10615 10617 10619 10621 10623 10625 10626 10628 10630 10632 10635 10636 10637 10637 10638 10641 10645 10647 10648 10650 10651 10652 10654 10655 10657 10659 10660 10662 10665 10668 10670 10672 10673 10676 10678
10581 10582 10583 10582 10581 10581 10580 10581 10582 10584 10585 10586 10587 10588 10589 10589 10588 10587 10586 10586 10587 10589 10588 10588 10588 10589 10589 10589 10589 10590 10591 10592 10593 10594 10595 10596 10596 10597 10598 10598 10599 10599 10600 10601 10602 10603 10605 10607 10609 10610 10611 10613 10615 10617 10618 10620 10622 10624 10626 10627 10630 10632 10633 10633 10634 10638 10642 10644 10645 10647 10648 10649 10650 10652 10653 10654 10656 10658 10661 10664 10666 10668 10670 10672 10674
10573 10574 10576 10576 10576 10575 10575 10576 10577 10578 10579 10580 10581 10583 10584 10584 10583 10583 10582 10582 10584 10585 10585 10584 10585 10586 10586 10586 10587 10587 10587 10588 10590 10591 10592 10593 10593 10594 10595 10595 10595 10596 10597 10598 10599 10600 10601 10603 10605 10606 10608 10609 10611 10613 10614 10616 10618 10620 10622 10623 10626 10628 10629 10630 10631 10634 10638 10640 10642 10643 10644 10646 10648 10649 10650 10651 10653 10656 10658 10660 10663 10665 10667 10668 10670
10565 10566 10567 10568 10569 10569 10570 10571 10571 10572 10572 10574 10575 10577 10579 10579 10578 10578 10578 10578 10579 10581 10580 10580 10581 10582 10583 10583 10583 10583 10584 10585 10586 10587 10588 10589 10590 10591 10591 10591 10592 10592 10593 10594 10595 10596 10597 10599 10600 10602 10603 10605 10607 10609 10611 10613 10614 10616 10618 10620 10622 10624 10625 10626 10627 10629 10633 10635 10637 10639 10640 10642 10644 10645 10647 10649 10651 10652 10654 10657 10659 10661 10663 10664 10666
10558 10559 10559 10561 10562 10563 10564 10564 10565 10565 10566 10567 10569 10570 10572 10573 10573 10573 10573 10572 10574 10576 10576 10576 10577 10578 10578 10579 10579 10579 10580 10581 10582 10583 10584 10585 10586 10587 10587 10587 10588 10588 10589 10590 10591 10592 10593 10594 10595 10597 10599 10600 10602 10604 10606 10608 10610 10612 10614 10616 10618 10619 10621 10622 10623 10625 10628 10630 10633 10634 10636 10638 10639 10641 10642 10645 10647 10648 10651 10653 10654 10656 10658 10660 10662
10552 10553 10553 10554 10555 10556 10557 10558 10559 10559 10559 10561 10562 10563 10566 10567 10567 10567 10568 10567 10569 10571 10571 10571 10572 10573 10574 10574 10575 10576 10576 10577 10577 10578 10579 10580 10581 10582 10583 10583 10584 10585 10585 10586 10587 10588 10589 10590 10591 10593 10594 10596 10598 10600 10602 10604 10606 10608 10610 10612 10614 10615 10616 10618 10619 10621 10623 10625 10628 10630 10631 10633 10635 10636 10638 10641 10643 10645 10647 10648 10650 10651 10653 10655 10657
10547 10547 10547 10547 10548 10549 10551 10551 10553 10553 10553 10554 10556 10557 10560 10561 10560 10561 10562 10563 10564 10564 10565 10566 10566 10568 10569 10570 10571 10571 10572 10573 10573 10574 10574 10575 10576 10577 10578 10579 10580 10581 10582 10583 10584 10585 10586 10587 10588 10589 10590 10592 10594 10595 10597 10599 10601 10603 10605 10607 10609 10611 10612 10613 10615 10617 10618 10621 10623 10625 10627 10628 10630 10632 10634 10636 10638 10640 10642 10644 10645 10646 10648 10650 10652
10541 10541 10542 10542 10542 10542 10543 10545 10546 10547 10547 10549 10550 10551 10553 10554 10554 10555 10556 10557 10557 10558 10560 10560 10561 10562 10564 10565 10566 10567 10567 10568 10569 10569 10570 10570 10571 10572 10573 10574 10576 10577 10578 10579 10580 10582 10582 10583 10584 10585 10587 10588 10589 10591 10593 10595 10596 10598 10600 10602 10604 10605 10607 10608 10610 10612 10614 10616 10618 10620 10622 10624 10626 10627 10629 10631 10633 10635 10637 10638 10640 10641 10643 10645 10646
10536 10536 10536 10537 10537 10537 10537 10538 10539 10540 10541 10542 10544 10545 10546 10547 10548 10550 10551 10550 10551 10553 10554 10554 10555 10556 10558 10560 10561 10561 10562 10563 10564 10565 10565 10566 10566 10567 10568 10569 10571 10572 10573 10574 10576 10577 10578 10579 10580 10581 10583 10584 10585 10587 10588 10590 10592 10593 10595 10596 10598 10600 10601 10602 10604 10606 10608 10611 10613 10615 10617 10618 10620 10622 10624 10626 10627 10629 10631 10633 10634 10635 10637 10639 10641
10530 10530 10531 10532 10532 10532 10532 10532 10532 10533 10534 10535 10536 10538 10539 10540 10542 10544 10544 10544 10545 10547 10547 10549 10550 10550 10552 10554 10555 10556 10557 10558 10559 10560 10561 10561 10562 10563 10564 10565 10566 10567 10568 10570 10571 10573 10574 10575 10576 10577 10578 10580 10581 10583 10584 10586 10587 10588 10590 10591 10593 10594 10596 10597 10598 10600 10603 10605 10607 10609 10611 10612 10614 10616 10618 10620 10622 10624 10625 10627 10628 10630 10631 10633 10635
10524 10524 10525 10527 10527 10526 10526 10526 10527 10527 10528 10529 10529 10530 10531 10533 10534 10537 10537 10538 10539 10540 10541 10543 10544 10544 10546 10547 10549 10550 10552 10553 10554 10555 10556 10557 10557 10558 10559 10561 10562 10562 10563 10564 10565 10567 10568 10569 10570 10572 10573 10574 10576 10578 10580 10581 10582 10584 10585 10586 10587 10589 10590 10592 10593 10594 10596 10598 10600 10602 10604 10606 10608 10609 10611 10613 10615 10618 10620 10621 10622 10624 10626 10628 10629
10516 10517 10519 10521 10521 10520 10520 10520 10520 10521 10521 10522 10523 10523 10524 10525 10527 10529 10530 10531 10532 10533 10535 10536 10537 10538 10540 10541 10543 10545 10546 10547 10548 10549 10551 10552 10552 10554 10555 10556 10556 10557 10557 10558 10559 10560 10562 10563 10564 10565 10567 10568 10570 10572 10574 10576 10577 10579 10580 10581 10582 10584 10585 10586 10587 10588 10590 10591 10593 10595 10597 10599 10600 10602 10604 10606 10608 10610 10613 10615 10616 10617 10620 10622 10624
10508 10509 10511 10513 10514 10514 10514 10513 10513 10513 10514 10515 10515 10516 10517 10518 10519 10521 10523 10525 10525 10526 10527 10529 10530 10532 10533 10535 10537 10538 10540 10542 10543 10544 10545 10546 10548 10549 10549 10549 10550 10550 10551 10552 10553 10554 10555 10556 10558 10559 10560 10562 10564 10566 10568 10569 10571 10572 10574 10575 10577 10579 10580 10581 10582 10583 10583 10584 10586 10587 10589 10591 10593 10595 10596 10598 10600 10602 10604 10607 10609 10611 10612 10615 10618
10500 10501 10502 10505 10507 10506 10506 10506 10507 10506 10507 10507 10507 10508 10509 10510 10512 10513 10516 10517 10518 10519 10519 10521 10523 10524 10526 10529 10530 10531 10533 10536 10537 10538 10539 10541 10543 10543 10542 10543 10543 10543 10544 10545 10546 10547 10548 10550 10551 10553 10554 10556 10557 10559 10561 10563 10564 10566 10567 10569 10571 10573 10574 10575 10577 10577 10578 10579 10579 10580 10582 10583 10585 10587 10588 10590 10592 10594 10596 10599 10601 10603 10605 10607 10610
10492 10492 10493 10495 10498 10499 10498 10499 10499 10500 10501 10500 10499 10500 10501 10502 10503 10505 10507 10509 10511 10512 10512 10513 10515 10517 10519 10521 10522 10523 10526 10529 10531 10531 10532 10534 10537 10537 10536 10536 10536 10535 10536 10538 10539 10540 10541 10543 10545 10547 10548 10550 10551 10553 10554 10556 10557 10559 10561 10562 10564 10566 10567 10569 10570 10571 10572 10573 10574 10575 10576 10577 10578 10579 10581 10583 10584 10586 10588 10590 10593 10595 10598 10600 10602
10484 10484 10485 10486 10489 10491 10491 10491 10491 10493 10494 10493 10493 10493 10494 10495 10495 10496 10498 10501 10503 10504 10505 10506 10507 10508 10510 10513 10514 10515 10517 10521 10524 10526 10527 10528 10529 10531 10530 10529 10528 10528 10528 10530 10532 10533 10534 10537 10538 10540 10542 10543 10544 10546 10547 10549 10550 10552 10553 10555 10557 10558 10560 10562 10564 10565 10566 10567 10568 10570 10571 10572 10573 10573 10575 10576 10577 10578 10580 10582 10584 10587 10590 10592 10594
10477 10477 10477 10478 10480 10482 10483 10484 10484 10485 10486 10486 10486 10486 10486 10488 10488 10489 10490 10492 10494 10496 10497 10498 10498 10500 10502 10504 10506 10506 10508 10512 10515 10519 10522 10522 10521 10522 10522 10522 10521 10522 10522 10522 10525 10526 10528 10529 10531 10532 10534 10536 10536 10537 10539 10541 10542 10544 10545 10547 10549 10551 10553 10555 10556 10558 10559 10560 10562 10563 10565 10566 10567 10568 10569 10570 10571 10572 10574 10575 10576 10578 10581 10583 10586
10471 10471 10471 10471 10472 10473 10475 10476 10477 10478 10478 10479 10479 10479 10479 10480 10481 10483 10483 10484 10485 10486 10488 10489 10490 10491 10493 10496 10498 10499 10501 10504 10508 10512 10515 10516 10515 10513 10514 10515 10515 10516 10516 10516 10518 10518 10519 10521 10523 10523 10525 10526 10526 10528 10530 10532 10534 10536 10538 10539 10541 10543 10545 10547 10548 10550 10551 10552 10554 10556 10557 10559 10560 10562 10563 10564 10565 10566 10568 10569 10569 10570 10572 10574 10577
10465 10465 10465 10465 10465 10465 10466 10468 10469 10470 10471 10471 10472 10472 10472 10472 10473 10475 10476 10477 10478 10478 10479 10480 10480 10481 10483 10487 10490 10491 10494 10496 10501 10507 10509 10508 10506 10504 10505 10507 10508 10509 10510 10511 10511 10510 10510 10512 10513 10513 10514 10514 10516 10519 10521 10524 10526 10529 10531 10532 10534 10536 10537 10539 10540 10542 10543 10544 10546 10547 10549 10550 10552 10553 10555 10556 10558 10559 10561 10562 10563 10564 10565 10566 10568
10458 10458 10458 10457 10457 10457 10458 10459 10461 10462 10463 10464 10465 10465 10465 10465 10466 10467 10467 10469 10471 10471 10471 10470 10471 10472 10474 10477 10481 10484 10488 10490 10492 10499 10502 10500 10495 10493 10495 10498 10501 10504 10504 10504 10504 10503 10502 10503 10503 10503 10504 10504 10507 10510 10513 10515 10517 10519 10521 10523 10525 10527 10528 10530 10532 10533 10535 10536 10538 10539 10541 10542 10543 10545 10546 10548 10550 10551 10553 10554 10556 10557 10558 10559 10560
10449 10449 10450 10450 10449 10449 10450 10451 10452 10453 10454 10456 10457 10457 10457 10457 10458 10459 10459 10460 10462 10463 10464 10463 10463 10464 10466 10468 10471 10475 10480 10482 10484 10487 10490 10487 10484 10484 10486 10488 10493 10496 10497 10496 10497 10497 10496 10493 10492 10494 10495 10495 10498 10501 10503 10505 10507 10509 10510 10513 10515 10516 10518 10520 10522 10524 10526 10527 10529 10531 10532 10534 10535 10537 10539 10540 10542 10543 10545 10546 10548 10549 10550 10551 10552
10441 10442 10443 10443 10442 10442 10441 10442 10443 10445 10446 10447 10448 10449 10450 10450 10451 10451 10452 10453 10453 10455 10456 10456 10456 10457 10459 10460 10462 10465 10468 10472 10474 10475 10476 10475 10475 10476 10477 10479 10483 10486 10487 10488 10489 10490 10489 10484 10482 10485 10486 10487 10489 10490 10492 10495 10496 10498 10500 10503 10505 10506 10508 10511 10513 10515 10516 10517 10520 10522 10524 10525 10527 10529 10531 10532 10534 10535 10537 10538 10539 10540 10541 10542 10543
10434 10435 10435 10435 10436 10435 10435 10435 10435 10435 10437 10438 10439 10440 10442 10443 10444 10444 10444 10445 10446 10447 10447 10448 10449 10449 10452 10453 10453 10455 10457 10460 10463 10464 10465 10465 10466 10467 10468 10471 10474 10476 10477 10478 10479 10482 10482 10476 10473 10476 10479 10478 10478 10479 10482 10484 10484 10487 10490 10492 10494 10496 10499 10502 10504 10506 10507 10508 10509 10511 10514 10516 10517 10520 10523 10524 10526 10528 10528 10529 10530 10531 10532 10533 10533
10425 10428 10428 10428 10429 10429 10428 10428 10427 10427 10427 10427 10429 10430 10432 10434 10435 10436 10437 10437 10438 10439 10439 10440 10441 10441 10442 10443 10445 10446 10448 10450 10451 10453 10454 10456 10456 10457 10459 10461 10465 10467 10467 10469 10470 10473 10474 10468 10466 10469 10472 10470 10469 10470 10472 10472 10472 10475 10478 10480 10484 10487 10491 10493 10495 10496 10498 10498 10499 10501 10504 10505 10507 10510 10513 10515 10517 10519 10520 10520 10521 10522 10523 10523 10524
10417 10420 10420 10420 10421 10421 10420 10420 10419 10419 10419 10418 10418 10419 10421 10423 10425 10426 10428 10429 10430 10430 10431 10431 10432 10433 10433 10433 10435 10437 10438 10440 10441 10442 10443 10444 10445 10447 10448 10450 10453 10456 10457 10459 10461 10463 10464 10462 10461 10463 10463 10463 10463 10461 10460 10460 10461 10464 10466 10469 10474 10479 10481 10483 10485 10487 10487 10487 10489 10491 10493 10495 10496 10499 10502 10505 10507 10509 10510 10510 10511 10512 10513 10514 10515
10410 10411 10411 10411 10412 10412 10411 10411 10410 10410 10411 10410 10409 10410 10411 10412 10414 10415 10417 10419 10420 10421 10422 10422 10423 10424 10424 10424 10425 10427 10428 10429 10431 10431 10432 10433 10434 10435 10437 10438 10441 10443 10445 10447 10449 10451 10453 10453 10455 10454 10453 10455 10456 10452 10450 10451 10452 10452 10455 10458 10463 10468 10470 10471 10474 10476 10476 10477 10479 10481 10483 10485 10486 10488 10491 10494 10496 10497 10499 10500 10501 10502 10504 10505 10506
10402 10403 10402 10403 10403 10402 10401 10399 10399 10400 10401 10401 10401 10401 10402 10402 10403 10404 10406 10407 10408 10410 10411 10412 10413 10414 10415 10416 10417 10418 10418 10419 10420 10421 10422 10422 10423 10424 10425 10426 10428 10431 10433 10435 10436 10438 10440 10442 10444 10444 10445 10448 10447 10443 10442 10443 10442 10443 10446 10448 10452 10456 10457 10458 10462 10464 10463 10464 10468 10470 10472 10474 10475 10477 10479 10482 10484 10486 10487 10489 10490 10491 10493 10495 10496
10392 10394 10395 10395 10393 10390 10389 10388 10388 10390 10390 10390 10392 10393 10393 10393 10393 10393 10394 10394 10396 10397 10398 10400 10401 10403 10405 10406 10407 10409 10409 10410 10410 10410 10411 10411 10412 10413 10414 10414 10416 10419 10422 10423 10423 10425 10427 10429 10431 10433 10437 10441 10438 10433 10433 10434 10433 10435 10437 10437 10440 10444 10444 10445 10450 10451 10450 10451 10454 10457 10460 10462 10463 10465 10467 10470 10472 10473 10475 10478 10479 10480 10482 10484 10485
10381 10383 10385 10386 10382 10379 10379 10378 10378 10379 10379 10379 10381 10383 10383 10383 10383 10383 10383 10383 10384 10385 10386 10387 10389 10391 10393 10395 10397 10398 10399 10400 10399 10399 10400 10400 10401 10402 10402 10403 10403 10406 10409 10410 10411 10412 10413 10415 10418 10421 10427 10433 10428 10422 10422 10424 10425 10427 10427 10426 10428 10431 10431 10433 10437 10438 10437 10438 10441 10444 10447 10448 10449 10452 10455 10458 10459 10460 10462 10465 10467 10468 10470 10472 10473
10369 10371 10372 10373 10371 10369 10370 10370 10368 10368 10367 10368 10370 10371 10372 10372 10372 10373 10373 10373 10374 10374 10374 10375 10377 10379 10382 10384 10385 10385 10386 10387 10387 10388 10389 10389 10390 10391 10391 10392 10392 10394 10396 10397 10398 10399 10399 10402 10406 10409 10416 10421 10416 10410 10413 10416 10418 10419 10417 10415 10416 10417 10419 10422 10424 10425 10425 10427 10430 10432 10433 10434 10436 10439 10443 10447 10447 10446 10448 10451 10454 10456 10458 10459 10460
10357 10360 10361 10360 10360 10360 10360 10360 10358 10358 10358 10358 10359 10360 10360 10360 10360 10361 10361 10362 10363 10364 10364 10365 10366 10368 10370 10371 10372 10373 10374 10375 10375 10375 10376 10377 10379 10380 10380 10381 10381 10382 10384 10385 10385 10385 10386 10391 10394 10397 10403 10407 10401 10399 10405 10409 10409 10409 10407 10405 10405 10406 10408 10409 10410 10412 10414 10416 10418 10419 10419 10421 10423 10426 10430 10433 10433 10432 10434 10438 10441 10443 10445 10446 10446
10345 10348 10348 10348 10350 10349 10349 10348 10348 10348 10348 10348 10349 10349 10349 10348 10348 10348 10349 10350 10351 10352 10352 10354 10356 10358 10359 10359 10360 10361 10362 10363 10363 10364 10365 10366 10367 10368 10369 10370 10370 10371 10372 10372 10373 10373 10374 10379 10383 10385 10389 10391 10388 10391 10397 10397 10397 10397 10396 10394 10394 10394 10395 10397 10399 10401 10403 10405 10405 10406 10407 10408 10410 10413 10416 10418 10418 10418 10420 10424 10427 10429 10431 10432 10432
10332 10335 10337 10338 10338 10336 10336 10336 10337 10336 10336 10337 10338 10338 10338 10338 10337 10337 10338 10338 10339 10340 10340 10341 10344 10347 10348 10347 10348 10348 10349 10351 10352 10353 10354 10355 10356 10356 10357 10358 10359 10359 10359 10360 10362 10361 10361 10367 10372 10372 10374 10377 10378 10381 10384 10384 10384 10385 10383 10382 10381 10382 10384 10386 10388 10390 10391 10392 10392 10393 10395 10397 10398 10400 10401 10403 10403 10404 10406 10409 10411 10413 10416 10418 10418
10320 10323 10325 10325 10323 10322 10323 10323 10324 10324 10324 10325 10325 10326 10327 10327 10326 10327 10327 10327 10328 10328 10328 10330 10332 10335 10335 10335 10335 10336 10337 10338 10339 10340 10342 10343 10344 10345 10346 10347 10347 10347 10348 10349 10350 10350 10352 10356 10359 10358 10361 10366 10368 10370 10371 10371 10370 10370 10369 10370 10370 10370 10373 10375 10377 10378 10378 10379 10380 10380 10383 10387 10387 10386 10387 10388 10389 10391 10392 10394 10395 10398 10401 10402 10403
10307 10310 10311 10311 10309 10308 10310 10310 10310 10310 10311 10312 10313 10314 10315 10315 10315 10316 10316 10315 10316 10316 10317 10319 10321 10323 10323 10323 10323 10323 10324 10325 10327 10328 10329 10330 10331 10332 10334 10335 10335 10336 10337 10338 10338 10340 10343 10345 10345 10346 10350 10355 10356 10357 10356 10356 10355 10356 10357 10359 10359 10359 10361 10362 10364 10365 10366 10367 10367 10368 10371 10375 10375 10373 10374 10375 10376 10377 10378 10380 10381 10382 10385 10387 10389
10295 10296 10298 10298 10296 10296 10296 10296 10297 10298 10298 10299 10301 10302 10303 10303 10304 10305 10305 10304 10305 10305 10306 10307 10309 10310 10311 10311 10311 10311 10311 10314 10316 10317 10318 10318 10318 10319 10321 10323 10325 10325 10326 10326 10326 10328 10332 10335 10335 10336 10338 10341 10343 10342 10341 10341 10342 10344 10346 10346 10347 10348 10349 10349 10351 10353 10353 10354 10355 10355 10358 10362 10362 10361 10362 10363 10363 10363 10364 10365 10367 10368 10370 10372 10375
10282 10283 10284 10285 10284 10285 10284 10284 10285 10286 10287 10288 10289 10291 10291 10292 10293 10293 10293 10294 10295 10295 10295 10296 10297 10299 10299 10299 10299 10299 10300 10302 10304 10304 10306 10307 10307 10308 10310 10312 10314 10314 10314 10315 10315 10317 10322 10324 10325 10324 10325 10327 10329 10329 10329 10330 10331 10332 10333 10334 10336 10338 10338 10337 10339 10341 10341 10343 10344 10344 10346 10349 10349 10349 10350 10351 10351 10351 10351 10352 10352 10353 10355 10357 10360
10270 10271 10271 10272 10273 10275 10274 10275 10275 10275 10276 10277 10278 10279 10281 10282 10282 10282 10282 10283 10284 10284 10285 10285 10286 10288 10288 10287 10287 10288 10290 10292 10293 10293 10295 10296 10298 10300 10301 10302 10303 10303 10304 10304 10304 10308 10312 10314 10312 10311 10313 10316 10318 10319 10319 10320 10320 10320 10322 10323 10325 10326 10327 10327 10328 10330 10331 10331 10332 10333 10334 10336 10337 10337 10338 10338 10338 10338 10339 10339 10340 10340 10341 10343 10346
10258 10259 10259 10260 10263 10264 10265 10266 10265 10265 10266 10266 10267 10269 10271 10271 10271 10271 10272 10273 10273 10273 10274 10275 10276 10277 10276 10276 10276 10278 10280 10282 10283 10283 10285 10288 10291 10291 10290 10291 10293 10294 10295 10295 10296 10299 10302 10301 10300 10301 10305 10308 10309 10308 10308 10309 10310 10311 10312 10313 10314 10315 10316 10316 10318 10319 10320 10320 10321 10322 10322 10323 10324 10324 10325 10325 10326 10326 10327 10328 10329 10329 10330 10332 10334
10248 10248 10249 10250 10252 10254 10255 10255 10255 10255 10256 10256 10257 10258 10260 10261 10261 10261 10262 10262 10262 10263 10264 10265 10266 10266 10265 10265 10267 10268 10271 10273 10274 10275 10277 10280 10281 10280 10280 10282 10284 10284 10286 10287 10288 10290 10291 10290 10291 10293 10296 10297 10298 10298 10298 10299 10300 10301 10302 10303 10304 10305 10305 10306 10307 10308 10309 10310 10310 10310 10310 10311 10311 10312 10313 10314 10315 10316 10316 10317 10318 10319 10320 10321 10322
10238 10238 10239 10240 10242 10243 10244 10245 10246 10246 10245 10246 10247 10248 10249 10250 10250 10250 10251 10251 10252 10253 10255 10256 10256 10256 10255 10256 10258 10260 10261 10264 10265 10267 10269 10272 10272 10271 10272 10273 10274 10276 10278 10279 10280 10281 10282 10282 10283 10285 10286 10287 10288 10289 10289 10289 10290 10291 10293 10295 10296 10296 10296 10296 10297 10298 10298 10299 10299 10299 10299 10299 10300 10300 10301 10303 10304 10305 10306 10306 10307 10308 10309 10310 10311
10227 10228 10228 10229 10231 10232 10233 10234 10236 10236 10235 10235 10236 10237 10238 10239 10239 10240 10240 10241 10243 10245 10246 10247 10246 10246 10247 10249 10250 10251 10252 10254 10256 10258 10261 10263 10263 10263 10264 10264 10265 10268 10270 10271 10272 10273 10274 10274 10275 10276 10277 10278 10279 10279 10279 10278 10279 10282 10285 10288 10288 10288 10288 10287 10288 10288 10288 10288 10289 10289 10289 10289 10290 10290 10291 10292 10293 10295 10296 10297 10297 10298 10298 10299 10300
10216 10217 10218 10219 10221 10221 10222 10223 10224 10224 10224 10225 10227 10228 10228 10228 10229 10230 10230 10232 10235 10237 10238 10238 10237 10238 10239 10241 10242 10243 10244 10245 10247 10250 10253 10254 10254 10254 10255 10255 10258 10261 10262 10262 10264 10265 10265 10266 10267 10267 10268 10270 10270 10270 10269 10270 10271 10275 10279 10280 10280 10279 10279 10279 10279 10279 10279 10279 10279 10279 10279 10280 10280 10281 10282 10283 10284 10286 10286 10287 10287 10287 10287 10288 10288
10206 10207 10208 10210 10210 10211 10211 10213 10214 10214 10215 10216 10217 10219 10219 10219 10220 10220 10221 10224 10227 10229 10229 10230 10229 10230 10231 10233 10235 10236 10236 10237 10240 10244 10244 10243 10244 10246 10248 10250 10251 10253 10253 10254 10255 10256 10258 10258 10258 10259 10260 10261 10261 10261 10262 10264 10265 10268 10270 10272 10272 10271 10271 10271 10271 10271 10270 10270 10270 10270 10271 10271 10272 10273 10274 10275 10276 10276 10277 10277 10276 10276 10276 10276 10277
10196 10197 10198 10199 10200 10202 10203 10204 10205 10205 10206 10208 10209 10209 10209 10210 10211 10212 10214 10216 10218 10220 10221 10221 10221 10221 10223 10225 10227 10229 10230 10231 10233 10235 10235 10235 10238 10241 10242 10243 10244 10245 10245 10246 10247 10248 10250 10251 10251 10252 10253 10253 10253 10254 10256 10258 10259 10261 10262 10264 10263 10263 10263 10263 10263 10263 10263 10263 10263 10263 10263 10264 10265 10266 10267 10267 10267 10266 10266 10265 10265 10265 10266 10267 10269